Weather History for Salida, CO

Change the Weather History Date:

Sunday, October 16, 2011

  Actual Average (KGUC) Record (KGUC)
Temperature  
Mean Temperature 58 °F -  
Max Temperature 75 °F 57 °F 71 °F (2011)
Min Temperature 41 °F 21 °F 15 °F (2000)
Degree Days  
Heating Degree Days 7    
Growing Degree Days 8 (Base 50)    
Moisture  
Dew Point 18 °F    
Average Humidity 25    
Maximum Humidity 49    
Minimum Humidity 8    
Precipitation  
Precipitation 0.00 in - - ()
Sea Level Pressure  
Sea Level Pressure 30.28 in    
Wind  
Wind Speed 6 mph (West)    
Max Wind Speed 24 mph    
Max Gust Speed 36 mph    
Visibility 10 miles    
Events      
Averages and records for this station are not official NWS values.
T = Trace of Precipitation, MM = Missing Value Source: NWS Daily Summary

Daily Weather History Graph

Daily Weather History Graph

Search for Another Location

Airport:

Trip Planner

Search our weather history database for the weather conditions in past years. The results will help you decide how hot, cold, wet, or windy it might be!

Date:

Astronomy

Oct. 16, 2011 Rise Set
Actual Time 7:14 AM MDT 6:24 PM MDT
Civil Twilight 6:47 AM MDT 6:51 PM MDT
Nautical Twilight 6:16 AM MDT 7:22 PM MDT
Astronomical Twilight 5:45 AM MDT 7:53 PM MDT
Moon 9:16 PM MDT (10/16) 11:30 AM MDT (10/16)
Length of Visible Light 12h 04m
Length of Day
11h 10m
Waning Gibbous, 82% of the Moon is Illuminated
Oct 16
Waning Gibbous
Oct 19
Last Quarter
Oct 26
New
Nov 2
First Quarter
Nov 10
Full

Hourly Weather History & Observations

Time (MDT) Temp. Windchill Dew Point Humidity Pressure Visibility Wind Dir Wind Speed Gust Speed Precip Events Conditions
12:15 AM 47.5 °F - 21.0 °F 35% 30.31 in 10.0 mi NW 5.8 mph - N/A   Clear
12:35 AM 50.0 °F - 19.6 °F 30% 30.31 in 10.0 mi NW 4.6 mph - N/A   Clear
12:55 AM 48.9 °F - 19.8 °F 32% 30.31 in 10.0 mi Calm Calm - N/A   Clear
1:15 AM 48.2 °F - 19.4 °F 32% 30.31 in 10.0 mi Calm Calm - N/A   Clear
1:35 AM 47.7 °F - 19.4 °F 33% 30.32 in 10.0 mi NNW 5.8 mph - N/A   Clear
1:55 AM 48.4 °F - 19.4 °F 32% 30.32 in 10.0 mi NNW 6.9 mph - N/A   Clear
2:15 AM 48.9 °F - 19.2 °F 31% 30.33 in 10.0 mi NNW 10.4 mph - N/A   Clear
2:35 AM 46.8 °F - 19.4 °F 34% 30.33 in 10.0 mi Calm Calm - N/A   Clear
2:55 AM 46.6 °F - 20.1 °F 35% 30.33 in 10.0 mi Calm Calm - N/A   Clear
3:15 AM 45.0 °F - 22.3 °F 41% 30.32 in 10.0 mi Calm Calm - N/A   Clear
3:35 AM 45.3 °F - 21.2 °F 38% 30.32 in 10.0 mi Calm Calm - N/A   Clear
3:55 AM 45.0 °F - 21.2 °F 39% 30.32 in 10.0 mi Calm Calm - N/A   Clear
4:15 AM 44.4 °F 42.0 °F 21.4 °F 40% 30.33 in 10.0 mi NNW 4.6 mph - N/A   Clear
4:35 AM 43.7 °F - 21.6 °F 41% 30.33 in 10.0 mi Calm Calm - N/A   Clear
4:55 AM 43.0 °F 40.3 °F 21.9 °F 43% 30.33 in 10.0 mi NNW 4.6 mph - N/A   Clear
5:15 AM 43.2 °F 39.7 °F 22.1 °F 43% 30.33 in 10.0 mi NNW 5.8 mph - N/A   Clear
5:35 AM 42.8 °F - 22.1 °F 44% 30.33 in 10.0 mi Calm Calm - N/A   Clear
5:55 AM 42.4 °F 40.7 °F 22.5 °F 45% 30.34 in 10.0 mi NNW 3.5 mph - N/A   Clear
6:15 AM 42.1 °F 39.2 °F 22.8 °F 46% 30.34 in 10.0 mi NNW 4.6 mph - N/A   Clear
6:35 AM 41.9 °F - 22.8 °F 47% 30.34 in 10.0 mi Calm Calm - N/A   Clear
6:55 AM 41.7 °F 38.8 °F 23.0 °F 47% 30.34 in 10.0 mi WNW 4.6 mph - N/A   Clear
7:15 AM 41.0 °F - 23.0 °F 49% 30.34 in 10.0 mi Calm Calm - N/A   Clear
7:55 AM 42.4 °F 38.8 °F 23.0 °F 46% 30.34 in 10.0 mi NNW 5.8 mph - N/A   Clear
8:15 AM 43.9 °F 42.3 °F 23.5 °F 45% 30.35 in 10.0 mi NNW 3.5 mph - N/A   Clear
8:55 AM 46.8 °F - 24.6 °F 42% 30.35 in 10.0 mi NNW 3.5 mph - N/A   Clear
9:15 AM 49.5 °F - 24.4 °F 38% 30.34 in 10.0 mi North 3.5 mph - N/A   Clear
9:35 AM 53.4 °F - 27.3 °F 37% 30.34 in 10.0 mi Calm Calm - N/A   Clear
9:55 AM 55.2 °F - 27.3 °F 34% 30.33 in 4.0 mi Calm Calm - N/A   Clear
10:15 AM 58.5 °F - 29.7 °F 33% 30.33 in 10.0 mi Calm Calm - N/A   Clear
10:35 AM 66.2 °F - 23.9 °F 20% 30.31 in 10.0 mi SSE 6.9 mph - N/A   Clear
10:55 AM 70.2 °F - 20.8 °F 15% 30.31 in 10.0 mi SSW 13.8 mph 21.9 mph N/A   Clear
11:15 AM 71.8 °F - 19.4 °F 14% 30.30 in 10.0 mi SW 11.5 mph 25.3 mph N/A   Clear
11:35 AM 71.6 °F - 18.5 °F 13% 30.29 in 10.0 mi WSW 20.7 mph 32.2 mph N/A   Clear
11:55 AM 71.1 °F - 17.2 °F 13% 30.30 in 10.0 mi West 23.0 mph 29.9 mph N/A   Clear
12:15 PM 72.3 °F - 16.5 °F 12% 30.29 in 10.0 mi WSW 20.7 mph 28.8 mph N/A   Clear
12:35 PM 72.7 °F - 15.3 °F 11% 30.28 in 10.0 mi West 17.3 mph 25.3 mph N/A   Clear
12:55 PM 73.0 °F - 16.2 °F 12% 30.27 in 10.0 mi WSW 13.8 mph 27.6 mph N/A   Clear
1:15 PM 74.7 °F - 16.5 °F 11% 30.25 in 10.0 mi WSW 15.0 mph 20.7 mph N/A   Clear
1:35 PM 74.5 °F - 13.6 °F 10% 30.25 in 10.0 mi West 18.4 mph 24.2 mph N/A   Clear
1:55 PM 74.1 °F - 12.2 °F 9% 30.24 in 10.0 mi WSW 13.8 mph 28.8 mph N/A   Clear
2:15 PM 75.2 °F - 12.0 °F 9% 30.22 in 10.0 mi WSW 15.0 mph 27.6 mph N/A   Clear
2:35 PM 75.0 °F - 10.4 °F 8% 30.21 in 10.0 mi WSW 12.7 mph 33.4 mph N/A   Clear
2:55 PM 75.0 °F - 9.1 °F 8% 30.21 in 10.0 mi WSW 17.3 mph 35.7 mph N/A   Clear
3:15 PM 75.0 °F - 9.3 °F 8% 30.20 in 10.0 mi WSW 24.2 mph 33.4 mph N/A   Clear
3:35 PM 75.4 °F - 9.3 °F 8% 30.19 in 10.0 mi West 18.4 mph 25.3 mph N/A   Clear
3:55 PM 75.2 °F - 9.5 °F 8% 30.19 in 10.0 mi West 11.5 mph 25.3 mph N/A   Clear
4:15 PM 74.5 °F - 10.2 °F 8% 30.19 in 10.0 mi West 13.8 mph 24.2 mph N/A   Clear
4:35 PM 73.9 °F - 10.9 °F 9% 30.19 in 10.0 mi West 19.6 mph 26.5 mph N/A   Clear
4:55 PM 72.1 °F - 11.5 °F 10% 30.19 in 10.0 mi West 18.4 mph 26.5 mph N/A   Clear
5:15 PM 69.8 °F - 11.8 °F 11% 30.19 in 10.0 mi West 19.6 mph 25.3 mph N/A   Clear
5:35 PM 69.3 °F - 12.2 °F 11% 30.19 in 10.0 mi West 11.5 mph 20.7 mph N/A   Clear
5:55 PM 67.5 °F - 12.0 °F 12% 30.19 in 10.0 mi WSW 5.8 mph - N/A   Clear
6:15 PM 65.7 °F - 11.8 °F 12% 30.19 in 10.0 mi Calm Calm - N/A   Clear
6:55 PM 60.1 °F - 13.8 °F 16% 30.20 in 10.0 mi Calm Calm - N/A   Clear
7:15 PM 60.8 °F - 14.4 °F 16% 30.21 in 10.0 mi Calm Calm - N/A   Clear
7:35 PM 60.3 °F - 14.4 °F 17% 30.21 in 10.0 mi SE 4.6 mph - N/A   Clear
7:55 PM 62.1 °F - 13.1 °F 15% 30.21 in 10.0 mi Calm Calm - N/A   Clear
8:15 PM 59.4 °F - 14.2 °F 17% 30.20 in 10.0 mi Calm Calm - N/A   Clear
8:35 PM 57.0 °F - 15.4 °F 20% 30.20 in 10.0 mi South 4.6 mph - N/A   Clear
8:55 PM 60.3 °F - 15.1 °F 17% 30.20 in 10.0 mi Calm Calm - N/A   Clear
9:15 PM 56.1 °F - 16.5 °F 21% 30.21 in 10.0 mi Calm Calm - N/A   Clear
9:35 PM 57.6 °F - 16.3 °F 20% 30.20 in 10.0 mi Calm Calm - N/A   Clear
9:55 PM 55.8 °F - 16.2 °F 21% 30.20 in 10.0 mi SSW 3.5 mph - N/A   Clear
10:15 PM 55.9 °F - 16.0 °F 21% 30.20 in 10.0 mi Calm Calm - N/A   Clear
10:35 PM 55.0 °F - 15.8 °F 21% 30.20 in 10.0 mi Calm Calm - N/A   Clear
11:15 PM 52.5 °F - 17.2 °F 25% 30.20 in 10.0 mi West 6.9 mph - N/A   Clear
11:35 PM 51.4 °F - 16.7 °F 25% 30.20 in 10.0 mi WSW 3.5 mph - N/A   Clear
11:55 PM 53.2 °F - 16.7 °F 24% 30.20 in 10.0 mi WSW 6.9 mph - N/A   Clear